Location: Valencia
(39.4696°N, 0.3770°W)
Time: 05:37:54
(UTC+02:00)

ISS - Visible Passes

Search period start: 27 September 2016 00:00
Search period end: 07 October 2016 00:00
Orbit: 400 x 410 km, 51.6° (Epoch: 27 September)

Date Brightness Start Highest point End Pass type
(mag) Time Alt. Az. Time Alt. Az. Time Alt. Az.
27 Sep -1.9 21:20:34 10° SSW 21:22:21 26° S 21:22:21 26° S visible
28 Sep -1.7 20:29:18 10° S 20:31:39 19° SE 20:33:13 14° E visible
28 Sep -0.7 22:04:48 10° WSW 22:05:56 19° W 22:05:56 19° W visible
29 Sep -3.4 21:12:32 10° SW 21:15:47 83° NW 21:16:34 48° NE visible
30 Sep -3.0 20:20:35 10° SSW 20:23:43 48° SE 20:26:52 10° ENE visible
30 Sep -0.8 21:57:42 10° W 21:59:43 21° NW 21:59:43 21° NW visible
01 Oct -1.9 21:05:04 10° W 21:08:05 35° NNW 21:09:58 19° NNE visible
02 Oct -2.9 20:12:40 10° WSW 20:15:53 64° NW 20:19:08 10° NE visible
02 Oct -0.5 21:50:56 10° NW 21:52:47 15° NNW 21:52:47 15° NNW visible
03 Oct -1.0 20:58:01 10° WNW 21:00:29 20° NNW 21:02:49 11° NNE visible
04 Oct -1.6 20:05:15 10° W 20:08:09 29° NNW 20:11:05 10° NE visible
04 Oct -0.3 21:44:26 10° NNW 21:45:25 11° N 21:45:25 11° N visible
05 Oct -0.6 20:51:16 10° NW 20:52:59 13° NNW 20:54:41 10° NNE visible
06 Oct -0.9 19:58:13 10° WNW 20:00:31 18° NNW 20:02:50 10° NNE visible
